CZ-3B R/B, 62486

Orbit data source: Space-Track

CZ-3B R/B, 62486 is space debris in HEO originally from a launch on Mon, 06 Jan 2025 UTC launched from the Xichang Space Center, China (XSC). Debris objects in space refer to the collection of defunct objects orbiting the Earth. Examples of debris include non-operational satellites, rocket bodies, and fragments generated from explosions, collisions, or faulty payload assembly.

Loading next visibility...
Identifier
62486, 2025-002B
Orbit
HEO
Country
Flag of CNCN / PRC
Related business
Manufacturer
CALT
Mission
Spacecraft
Bus & Motor
CZ-3A STAGE 3, Unknown motor
Mass
~2,800 kg wet, ~2,800 kg dry
Launch date (UTC)
2025-01-06 (11 months ago)
Launch vehicle
Unknown
Launch site
Xichang Space Center, China (XSC)
Object type
Payload
Rocket body
Debris
Shape & HBR
Cyl + 1 Nozzle, 3.3 m
Radar Cross Section
32.704 m², Large (>1 m²)

Expand to show TLE details & history
Last TLE update: 1 day ago

TLE from 1 day ago
0 CZ-3B R/B
1 62486U 25002B   25346.33527534  .00176928  37987-6  88490-3 0  9992
2 62486  28.3638 232.1525 6200276  98.9610 331.4200  3.85448582  3243
Epoch: 2025-12-12T08:02Z
TLE epoch observation values (Epoch: 2025-12-12T08:02:47.789Z)
Latitude
0.00003°
Longitude
30.21219°
Altitude
5,323.401 km
Speed
6.703 km/s
True Right ascension
15h 28m 45s
True Declination
0° 00' 00"
Sunlit
Object was in daylight at epoch
Visualization orbit readout
Latitude
Unknown
Longitude
Unknown
Altitude
Unknown
Speed
Unknown
Apparent Right ascension
Unknown
Apparent Declination
Unknown
Sunlit
N/A
Visualization observer readout
Local Sidereal Time
11:03:52
Azimuth
Unknown
Elevation
Unknown
Doppler factor
Unknown
Orbital elements
Apogee altitude
21,463.982 km
Perigee altitude
152.145 km
Semi-major axis
17,186.2 km
Eccentricity
0.62003
Inclination
28.3638°
RAAN
232.1525°
Arg. of periapsis
98.961°
True anomaly
261.07473°
Mean anomaly
331.42°
Eccentric anomaly
300.95471°
Mean motion
0.96333 °/min
Orbital period
373.71 mins
BSTAR
0.0008849
Loading maneuver chart data...
Computing Atmospheric mass density...
Loading historical data...
Loading historical data...
Loading historical data...
Loading historical data...
Loading historical data...
Loading historical data...
Loading historical data...
Other satellites on launch #2 in the year 2025 (2025-01-06 UTC)

Documentation

Showing up to 5 results
|